Photometre #855[NE_1.6_Dp] Glasgow_MO AOT

File : 20190923_855.hum

23/09/2019,07:08:37,TEMP=13.8,BA=5.64,STAT.A,ExtBa=12.30
23/09/2019,07:13:16,TEMP=14.0,BA=5.60,STAT.A,ExtBa=12.20
23/09/2019,07:18:43,TEMP=14.1,BA=5.60,STAT.A,ExtBa=12.20
23/09/2019,07:25:13,TEMP=14.1,BA=5.60,STAT.A,ExtBa=12.20
23/09/2019,07:33:06,TEMP=14.1,BA=5.64,STAT.A,ExtBa=12.20
23/09/2019,07:42:53,TEMP=14.1,BA=5.64,STAT.A,ExtBa=12.20
23/09/2019,07:55:22,TEMP=14.4,BA=5.64,STAT.B,ExtBa=12.20
23/09/2019,08:01:23,TEMP=14.5,BA=5.64,STAT.A,ExtBa=12.20
23/09/2019,08:08:11,TEMP=14.6,BA=5.64,STAT.A,ExtBa=12.20
23/09/2019,08:15:54,TEMP=14.8,BA=5.64,STAT.A,ExtBa=12.20
23/09/2019,08:24:48,TEMP=15.1,BA=5.64,STAT.A,ExtBa=12.20
23/09/2019,08:35:09,TEMP=15.0,BA=5.64,STAT.C,ExtBa=12.20
23/09/2019,08:47:25,TEMP=14.9,BA=5.64,STAT.A,ExtBa=12.20
23/09/2019,09:02:17,TEMP=14.8,BA=5.64,STAT.A,ExtBa=12.20
23/09/2019,09:11:16,TEMP=15.0,BA=5.64,STAT.F,ExtBa=12.20
23/09/2019,09:26:15,TEMP=15.0,BA=5.64,STAT.D,ExtBa=12.20
23/09/2019,09:41:15,TEMP=15.0,BA=5.64,STAT.D,ExtBa=12.20
23/09/2019,09:56:15,TEMP=15.1,BA=5.64,STAT.D,ExtBa=12.30
23/09/2019,10:11:17,TEMP=15.3,BA=5.64,STAT.F,ExtBa=12.30
23/09/2019,10:26:15,TEMP=15.8,BA=5.64,STAT.D,ExtBa=12.20
23/09/2019,10:41:15,TEMP=15.9,BA=5.64,STAT.D,ExtBa=12.20
23/09/2019,10:56:15,TEMP=16.2,BA=5.64,STAT.D,ExtBa=12.30
23/09/2019,11:11:17,TEMP=16.2,BA=5.64,STAT.F,ExtBa=12.20
23/09/2019,11:26:15,TEMP=16.1,BA=5.64,STAT.D,ExtBa=12.20
23/09/2019,11:41:15,TEMP=16.1,BA=5.64,STAT.D,ExtBa=12.20
23/09/2019,11:56:15,TEMP=16.0,BA=5.64,STAT.D,ExtBa=12.20
23/09/2019,12:11:17,TEMP=17.2,BA=5.64,STAT.F,ExtBa=12.30
23/09/2019,12:26:15,TEMP=17.5,BA=5.64,STAT.D,ExtBa=12.30
23/09/2019,12:41:15,TEMP=17.2,BA=5.64,STAT.D,ExtBa=12.20
23/09/2019,12:56:15,TEMP=17.4,BA=5.64,STAT.D,ExtBa=12.30
23/09/2019,13:11:17,TEMP=17.8,BA=5.64,STAT.F,ExtBa=12.20
23/09/2019,13:26:15,TEMP=18.2,BA=5.64,STAT.D,ExtBa=12.20
23/09/2019,13:41:15,TEMP=18.3,BA=5.64,STAT.D,ExtBa=12.20
23/09/2019,13:56:15,TEMP=18.3,BA=5.64,STAT.D,ExtBa=12.20
23/09/2019,14:11:17,TEMP=17.7,BA=5.64,STAT.F,ExtBa=12.20
23/09/2019,14:37:07,TEMP=19.2,BA=5.56,STAT.D,ExtBa=12.10
23/09/2019,14:41:15,TEMP=19.2,BA=5.64,STAT.D,ExtBa=12.10
23/09/2019,14:56:15,TEMP=19.0,BA=5.64,STAT.D,ExtBa=12.20
23/09/2019,15:11:16,TEMP=19.0,BA=5.64,STAT.F,ExtBa=12.20
23/09/2019,15:36:37,TEMP=19.4,BA=5.56,STAT.A,ExtBa=12.10
23/09/2019,15:38:43,TEMP=19.4,BA=5.56,STAT.A,ExtBa=12.10
23/09/2019,15:47:23,TEMP=19.4,BA=5.56,STAT.C,ExtBa=12.10
23/09/2019,16:12:52,TEMP=19.7,BA=5.56,STAT.A,ExtBa=12.10
23/09/2019,16:14:47,TEMP=19.6,BA=5.56,STAT.A,ExtBa=12.10
23/09/2019,16:16:51,TEMP=19.4,BA=5.56,STAT.A,ExtBa=12.10
23/09/2019,16:21:09,TEMP=18.8,BA=5.60,STAT.A,ExtBa=12.10
23/09/2019,16:27:10,TEMP=18.3,BA=5.60,STAT.B,ExtBa=12.10
23/09/2019,16:39:39,TEMP=16.9,BA=5.60,STAT.A,ExtBa=12.10
23/09/2019,16:49:26,TEMP=16.4,BA=5.56,STAT.A,ExtBa=12.10
23/09/2019,16:57:19,TEMP=16.4,BA=5.56,STAT.A,ExtBa=12.10
23/09/2019,17:03:49,TEMP=16.4,BA=5.64,STAT.A,ExtBa=12.10
23/09/2019,17:09:16,TEMP=16.4,BA=5.64,STAT.A,ExtBa=12.10
23/09/2019,17:13:55,TEMP=16.6,BA=5.56,STAT.A,ExtBa=12.10